This demonstration page uses our WeatherBlox Daily Observations layout. Learn more.

Left ArrowRight Arrow

Hourly Observations for October 15, 2016

Temp ( °F °C ) Dew Point ( °F °C ) Humidity (%) Winds ( mph kmh ) Pressure ( in mb ) Visibility ( mi km ) Precip ( " mm )
12:54 am 00:54 Mostly Clear 62 16.7 59 15 90 90 S 15 24 29.79 1009 10 16.0934 0 0
1:08 am 01:08 Mostly Cloudy 63 17 59 15 88 88 S 13 20 29.77 1008 10 16.0934 0 0
1:38 am 01:38 Cloudy 63 17.2 60 15.6 90 90 S 13 20 29.77 1008 10 16.0934 0 0
1:54 am 01:54 Cloudy 63 17.2 60 15.6 90 90 S 15 24 29.78 1009 10 16.0934 0 0
2:54 am 02:54 Mostly Cloudy 64 17.8 60 15.6 87 87 S 18 30 29.75 1008 10 16.0934 0 0
3:54 am 03:54 Cloudy 65 18.3 60 15.6 84 84 S 18 30 29.76 1008 10 16.0934 0 0
4:52 am 04:52 Cloudy 66 19 61 16 83 83 S 15 24 29.74 1007 10 16.0934 0 0
4:54 am 04:54 Cloudy 66 18.9 60 15.6 81 81 S 13 20 29.75 1007 10 16.0934 0 0
5:54 am 05:54 Cloudy 66 18.9 61 16.1 84 84 S 14 22 29.73 1007 10 16.0934 0 0
6:54 am 06:54 Cloudy 66 18.9 62 16.7 87 87 S 10 17 29.72 1007 10 16.0934 0 0
7:54 am 07:54 Cloudy 68 20 63 17.2 84 84 S 15 24 29.73 1007 10 16.0934 0 0
8:54 am 08:54 Cloudy 67 19.4 63 17.2 87 87 S 9 15 29.75 1008 10 16.0934 0 0
9:54 am 09:54 Cloudy 69 20.6 63 17.2 81 81 S 14 22 29.75 1007 10 16.0934 0 0
10:54 am 10:54 Cloudy 70 21.1 62 16.7 76 76 S 20 31 29.75 1008 10 16.0934 0 0
11:52 am 11:52 Cloudy 72 22 63 17 73 73 S 17 28 29.71 1006 10 16.0934 0 0
11:54 am 11:54 Cloudy 71 21.7 62 16.7 73 73 S 17 28 29.75 1008 10 16.0934 0 0
12:09 pm 12:09 Cloudy 71 21.7 62 16.7 73 73 S 18 30 29.71 1006 10 16.0934 0 0
12:54 pm 12:54 Cloudy 72 22.2 63 17.2 73 73 S 14 22 29.76 1008 10 16.0934 0 0
1:54 pm 13:54 Cloudy 72 22.2 63 17.2 73 73 S 14 22 29.74 1007 10 16.0934 0 0
2:36 pm 14:36 Cloudy 73 23 63 17 69 69 S 13 20 29.71 1006 10 16.0934 0 0
2:54 pm 14:54 Cloudy 73 22.8 63 17.2 71 71 S 15 24 29.72 1006 10 16.0934 0 0
3:54 pm 15:54 Mostly Cloudy 76 24.4 63 17.2 64 64 S 9 15 29.71 1006 10 16.0934 0 0
4:54 pm 16:54 Mostly Sunny 76 24.4 62 16.7 62 62 S 9 15 29.73 1007 10 16.0934 0 0
5:54 pm 17:54 Sunny 75 23.9 63 17.2 66 66 S 6 9 29.75 1007 10 16.0934 0 0
6:54 pm 18:54 Clear 69 20.6 62 16.7 78 78 S 6 9 29.76 1008 10 16.0934 0 0
7:54 pm 19:54 Clear 65 18.3 61 16.1 87 87 SSE 5 7 29.79 1009 10 16.0934 0 0
8:54 pm 20:54 Clear 63 17.2 61 16.1 93 93 SSE 3 6 29.8 1009 10 16.0934 0 0
9:54 pm 21:54 Clear 63 17.2 61 16.1 93 93 S 5 7 29.81 1010 9 14.48406 0 0
10:54 pm 22:54 Clear with Mist and Fog 61 16.1 60 15.6 97 97 Calm 29.82 1010 4 6.43736 0 0
11:54 pm 23:54 Clear 57 13.9 55 12.8 93 93 N 8 13 29.84 1011 7 11.26538 0 0

Powered by AerisWeather